Weather History for Northeast Philadelphia, PA

Change the Weather History Date:

Tuesday, March 25, 2014

  Actual Average Record
Temperature  
Mean Temperature 30 °F -  
Max Temperature 41 °F 53 °F 66 °F (2003)
Min Temperature 21 °F 35 °F 21 °F (2014)
Degree Days  
Heating Degree Days 35    
Moisture  
Dew Point 19 °F    
Average Humidity 62    
Maximum Humidity 82    
Minimum Humidity 33    
Precipitation  
Precipitation 0.01 in - - ()
Sea Level Pressure  
Sea Level Pressure 30.01 in    
Wind  
Wind Speed 5 mph (East)    
Max Wind Speed 13 mph    
Max Gust Speed 17 mph    
Visibility 7 miles    
Events Snow    
Averages and records for this station are not official NWS values.
T = Trace of Precipitation, MM = Missing Value Source: NWS Daily Summary

Daily Weather History Graph

Daily Weather History Graph

Search for Another Location

Airport:

Trip Planner

Search our weather history database for the weather conditions in past years. The results will help you decide how hot, cold, wet, or windy it might be!

Date:

Astronomy

Mar. 25, 2014 Rise Set
Actual Time 6:55 AM EDT 7:17 PM EDT
Civil Twilight 6:28 AM EDT 7:44 PM EDT
Nautical Twilight 5:56 AM EDT 8:16 PM EDT
Astronomical Twilight 5:23 AM EDT 8:49 PM EDT
Moon 3:15 AM EDT (3/25) 1:45 PM EDT (3/25)
Length of Visible Light 13h 16m
Length of Day
12h 21m
Waning Crescent, 32% of the Moon is Illuminated
Mar 25
Waning Crescent
Mar 30
New
Apr 7
First Quarter
Apr 15
Full
Apr 22
Last Quarter

Hourly Weather History & Observations

Time (EDT) Temp. Windchill Dew Point Humidity Pressure Visibility Wind Dir Wind Speed Gust Speed Precip Events Conditions
12:54 AM 26.1 °F - 8.1 °F 47% 30.19 in 10.0 mi Calm Calm - N/A   Clear
1:54 AM 24.1 °F - 10.0 °F 55% 30.18 in 10.0 mi Calm Calm - N/A   Clear
2:54 AM 25.0 °F - 9.0 °F 51% 30.17 in 10.0 mi Calm Calm - N/A   Clear
3:54 AM 21.9 °F 15.7 °F 9.0 °F 58% 30.17 in 10.0 mi NE 4.6 mph - N/A   Clear
4:54 AM 21.9 °F - 10.0 °F 60% 30.16 in 10.0 mi Calm Calm - N/A   Clear
5:54 AM 21.0 °F 16.2 °F 9.0 °F 60% 30.15 in 10.0 mi ENE 3.5 mph - N/A   Clear
6:54 AM 21.9 °F 15.7 °F 9.0 °F 58% 30.14 in 10.0 mi NE 4.6 mph - N/A   Clear
7:54 AM 25.0 °F 20.7 °F 12.9 °F 60% 30.14 in 10.0 mi NE 3.5 mph - N/A   Clear
8:54 AM 28.9 °F - 14.0 °F 54% 30.13 in 9.0 mi Calm Calm - N/A   Overcast
9:54 AM 32.0 °F - 17.1 °F 54% 30.13 in 8.0 mi Calm Calm - N/A   Scattered Clouds
10:54 AM 37.9 °F 30.9 °F 17.1 °F 43% 30.12 in 10.0 mi SE 10.4 mph - N/A   Clear
11:54 AM 39.9 °F 35.1 °F 12.9 °F 33% 30.10 in 10.0 mi Variable 6.9 mph - N/A   Overcast
12:54 PM 39.9 °F 37.8 °F 12.9 °F 33% 30.07 in 10.0 mi Variable 3.5 mph - N/A   Overcast
1:54 PM 39.0 °F 32.3 °F 18.0 °F 43% 30.04 in 10.0 mi SSW 10.4 mph 17.3 mph N/A   Overcast
2:54 PM 39.0 °F 34.0 °F 19.9 °F 46% 30.00 in 10.0 mi Variable 6.9 mph - N/A   Overcast
3:54 PM 37.9 °F 31.5 °F 21.0 °F 51% 29.96 in 10.0 mi ESE 9.2 mph - N/A   Overcast
4:54 PM 37.9 °F 32.1 °F 21.0 °F 51% 29.92 in 10.0 mi East 8.1 mph - N/A   Overcast
5:38 PM 37.0 °F 31.0 °F 23.0 °F 57% 29.91 in 5.0 mi East 8.1 mph - 0.00 in Snow Light Snow
5:48 PM 35.6 °F 28.6 °F 24.8 °F 65% 29.91 in 2.5 mi East 9.2 mph - 0.00 in Snow Light Snow
5:54 PM 35.1 °F 27.9 °F 25.0 °F 67% 29.92 in 2.0 mi East 9.2 mph - 0.00 in Snow Light Snow
6:04 PM 35.1 °F 26.4 °F 26.1 °F 70% 29.91 in 1.5 mi East 12.7 mph - 0.00 in Snow Light Snow
6:20 PM 34.0 °F 25.5 °F 26.1 °F 73% 29.92 in 2.5 mi East 11.5 mph - 0.00 in Snow Light Snow
6:49 PM 33.8 °F 26.4 °F 24.8 °F 70% 29.93 in 5.0 mi East 9.2 mph - 0.00 in Snow Light Snow
6:54 PM 34.0 °F 26.6 °F 25.0 °F 70% 29.93 in 4.0 mi ENE 9.2 mph - 0.00 in Snow Light Snow
7:06 PM 34.0 °F 25.0 °F 25.0 °F 70% 29.93 in 1.8 mi SE 12.7 mph - 0.00 in Snow Light Snow
7:32 PM 32.0 °F 24.2 °F 27.0 °F 82% 29.93 in 1.0 mi East 9.2 mph - 0.01 in Snow Light Snow
7:43 PM 32.0 °F 24.8 °F 27.0 °F 82% 29.92 in 1.2 mi East 8.1 mph - 0.01 in Snow Light Snow
7:54 PM 32.0 °F 24.2 °F 27.0 °F 82% 29.93 in 2.0 mi East 9.2 mph - 0.01 in Snow Light Snow
8:05 PM 32.0 °F 24.2 °F 27.0 °F 82% 29.92 in 3.0 mi East 9.2 mph - 0.00 in Snow Light Snow
8:54 PM 32.0 °F 24.2 °F 26.1 °F 79% 29.93 in 7.0 mi ENE 9.2 mph - 0.00 in   Overcast
9:54 PM 32.0 °F 24.2 °F 26.1 °F 79% 29.92 in 3.0 mi NE 9.2 mph - 0.00 in Snow Light Snow
10:54 PM 32.0 °F 24.8 °F 26.1 °F 79% 29.91 in 3.0 mi NNE 8.1 mph - 0.00 in Snow Light Snow
11:54 PM 32.0 °F 25.6 °F 26.1 °F 79% 29.90 in 6.0 mi North 6.9 mph - 0.00 in   Haze